Tracking 28792 objects as of 25-Apr-2024
HD Live streaming from Space Station
objects crossing your sky now

STARLINK-31330

Track STARLINK-31330 now!
10-day predictions
STARLINK-31330 is classified as:


NORAD ID: 58951
Int'l Code: 2024-027W
Perigee: 488.1 km
Apogee: 489.7 km
Inclination: 53.2 °
Period: 94.2 minutes
Semi major axis: 6859 km
RCS: Unknown
Launch date: February 10, 2024
Source: United States (US)
Launch site: AIR FORCE WESTERN TEST RANGE (AFWTR)
Your satellite tracking list
Your tracking list is empty




NASA's NSSDC Master Catalog

Two Line Element Set (TLE):
1 58951U 24027W   24115.62079924 -.00001503  00000-0 -41627-4 0  9990
2 58951  53.1607 245.6865 0001184 134.9066 225.2030 15.28021545 12618
Source of the keplerian elements: AFSPC